Погода в Кинтаново

Россия / Ярославская область     58°22′18″N   40°57′05″E
темп.,
°C
ветер,
м/с
пор.,
м/с
влажн.,
%
обл.,
%
осадки,
мм/ч
давл.,
гПа
погр.,
м
4 августа, ср
ср400:00+14ююз258338 0.0 100986
03:00+13зюз24814 0.0 1010101
06:00+14зюз28810 0.0 1011215
09:00+19з46540 0.0 10121154
12:00+22з454241 0.0 10132177
15:00+22з55364 0.0 10132161
18:00+20з35434 0.0 10141236
21:00+14з25621 0.0 101590
5 августа, чт
чт500:00+13сз226727 0.0 101639
03:00+14з1165100 0.0 101624
06:00+14ссз1266100 0.0 101757
09:00+19св114857 0.0 1018536
12:00+22з233499 0.0 10182512
15:00+21з223797 0.0 10182000
18:00+20ссз1153100 0.0 101739
21:00+15всв2263100 0.0 101713
6 августа, пт
пт600:00+15ю1162100 0.0 101734
03:00+13вюв2288100 0.5 101757
06:00+12всв4998100 7.2 1016536
09:00+12вюв41099100 16.9 1016719
12:00+13юв2798100 1.1 1016599
15:00+13в3597100 1.3 1016478
18:00+13в3697100 0.0 1016370
21:00+12всв3698100 0.0 1016301
7 августа, сб
сб700:00+12всв3698100 0.0 1017353
03:00+12всв3898100 0.0 1017378
06:00+12св3997100 0.0 1017476
09:00+13всв3895100 0.1 1018437
12:00+14всв4891100 0.2 1018544
15:00+16всв598198 0.2 1018747
18:00+15всв41088100 0.2 1019660
21:00+14всв41090100 0.3 1019527
8 августа, вс
вс800:00+13всв41298100 1.8 1019474
03:00+13в41297100 2.1 1019488
06:00+13в51297100 0.3 1019490
09:00+13в51497100 1.9 1018460
12:00+17в597695 0.1 1018616
15:00+21в466061 0.1 1018916
18:00+16всв41082100 0.1 1018386
21:00+15всв41174100 0.1 1018375